Time,TemperatureF,DewpointF,PressureIn,WindDirection,WindDirectionDegrees,WindSpeedMPH,WindSpeedGustMPH,Humidity,HourlyPrecipIn,Conditions,Clouds,dailyrainin,SoftwareType,DateUTC
2013-05-30 00:01:00,51.0,46.0,29.99,NE,54,1.0,2.0,84,0.00,,,0.00,,2013-05-30 07:01:00,
2013-05-30 00:11:00,51.0,46.0,29.99,NE,54,1.0,2.0,84,0.00,,,0.00,,2013-05-30 07:11:00,
2013-05-30 00:21:00,50.0,45.0,29.99,ENE,62,0.0,4.0,84,0.00,,,0.00,,2013-05-30 07:21:00,
2013-05-30 00:31:00,50.0,45.0,29.99,SE,144,0.0,5.0,84,0.00,,,0.00,,2013-05-30 07:31:00,
2013-05-30 00:42:00,50.0,45.0,29.99,SE,144,0.0,5.0,84,0.00,,,0.00,,2013-05-30 07:42:00,
2013-05-30 00:52:00,50.0,45.0,29.99,ENE,78,0.0,6.0,84,0.00,,,0.00,,2013-05-30 07:52:00,
2013-05-30 01:01:00,50.0,45.0,29.98,ENE,77,0.0,1.0,84,0.00,,,0.00,,2013-05-30 08:01:00,
2013-05-30 01:11:00,50.0,45.0,29.98,ENE,77,0.0,1.0,84,0.00,,,0.00,,2013-05-30 08:11:00,
2013-05-30 01:21:00,49.0,45.0,29.98,North,355,1.0,3.0,85,0.00,,,0.00,,2013-05-30 08:21:00,
2013-05-30 01:31:00,49.0,45.0,29.97,North,355,0.0,1.0,85,0.00,,,0.00,,2013-05-30 08:31:00,
2013-05-30 01:41:00,49.0,45.0,29.97,North,355,0.0,1.0,85,0.00,,,0.00,,2013-05-30 08:41:00,
2013-05-30 01:52:00,48.0,44.0,29.98,North,355,0.0,1.0,86,0.00,,,0.00,,2013-05-30 08:52:00,
2013-05-30 02:01:00,48.0,44.0,29.98,NNW,336,0.0,4.0,86,0.00,,,0.00,,2013-05-30 09:01:00,
2013-05-30 02:11:00,48.0,44.0,29.98,NNW,336,0.0,4.0,86,0.00,,,0.00,,2013-05-30 09:11:00,
2013-05-30 02:21:00,48.0,44.0,29.98,NW,325,0.0,1.0,86,0.00,,,0.00,,2013-05-30 09:21:00,
2013-05-30 02:32:00,48.0,44.0,29.98,NW,325,0.0,1.0,86,0.00,,,0.00,,2013-05-30 09:32:00,
2013-05-30 02:42:00,48.0,44.0,29.98,NW,325,0.0,1.0,86,0.00,,,0.00,,2013-05-30 09:42:00,
2013-05-30 02:53:00,48.0,44.0,29.98,NE,38,0.0,1.0,86,0.00,,,0.00,,2013-05-30 09:53:00,
2013-05-30 03:02:00,47.0,43.0,29.98,NE,38,0.0,0.0,86,0.00,,,0.00,,2013-05-30 10:02:00,
2013-05-30 03:12:00,47.0,43.0,29.98,NE,38,0.0,0.0,86,0.00,,,0.00,,2013-05-30 10:12:00,
2013-05-30 03:22:00,47.0,43.0,29.97,NE,36,0.0,2.0,87,0.00,,,0.00,,2013-05-30 10:22:00,
2013-05-30 03:32:00,47.0,43.0,29.97,NE,36,0.0,1.0,87,0.00,,,0.00,,2013-05-30 10:32:00,
2013-05-30 03:42:00,47.0,43.0,29.97,NE,36,0.0,1.0,87,0.00,,,0.00,,2013-05-30 10:42:00,
2013-05-30 03:52:00,46.0,42.0,29.98,NE,36,0.0,2.0,87,0.00,,,0.00,,2013-05-30 10:52:00,
2013-05-30 04:02:00,46.0,42.0,29.98,NE,36,0.0,0.0,87,0.00,,,0.00,,2013-05-30 11:02:00,
2013-05-30 04:12:00,46.0,42.0,29.98,NE,36,0.0,0.0,87,0.00,,,0.00,,2013-05-30 11:12:00,
2013-05-30 04:21:00,46.0,42.0,29.98,NE,36,0.0,0.0,87,0.00,,,0.00,,2013-05-30 11:21:00,
2013-05-30 04:32:00,46.0,43.0,29.98,NE,36,0.0,2.0,88,0.00,,,0.00,,2013-05-30 11:32:00,
2013-05-30 04:42:00,46.0,43.0,29.98,NE,36,0.0,2.0,88,0.00,,,0.00,,2013-05-30 11:42:00,
2013-05-30 04:52:00,46.0,43.0,29.98,NE,36,0.0,1.0,88,0.00,,,0.00,,2013-05-30 11:52:00,
2013-05-30 05:01:00,46.0,43.0,29.98,NE,36,0.0,1.0,88,0.00,,,0.00,,2013-05-30 12:01:00,
2013-05-30 05:11:00,46.0,43.0,29.98,NE,36,0.0,1.0,88,0.00,,,0.00,,2013-05-30 12:11:00,
2013-05-30 05:21:00,46.0,43.0,29.98,NE,36,0.0,2.0,88,0.00,,,0.00,,2013-05-30 12:21:00,
2013-05-30 05:31:00,45.0,42.0,29.98,ENE,66,0.0,3.0,88,0.00,,,0.00,,2013-05-30 12:31:00,
2013-05-30 05:42:00,45.0,42.0,29.98,ENE,66,0.0,3.0,88,0.00,,,0.00,,2013-05-30 12:42:00,
2013-05-30 05:52:00,45.0,42.0,29.98,ENE,66,0.0,2.0,88,0.00,,,0.00,,2013-05-30 12:52:00,
2013-05-30 06:01:00,45.0,42.0,29.98,ENE,66,0.0,1.0,88,0.00,,,0.00,,2013-05-30 13:01:00,
2013-05-30 06:11:00,45.0,42.0,29.98,ENE,66,0.0,1.0,88,0.00,,,0.00,,2013-05-30 13:11:00,
2013-05-30 06:21:00,45.0,42.0,29.98,ENE,66,0.0,1.0,88,0.00,,,0.00,,2013-05-30 13:21:00,
2013-05-30 06:32:00,46.0,43.0,29.99,ENE,66,0.0,0.0,89,0.00,,,0.00,,2013-05-30 13:32:00,
2013-05-30 06:41:00,46.0,43.0,29.99,ENE,66,0.0,0.0,89,0.00,,,0.00,,2013-05-30 13:41:00,
2013-05-30 06:52:00,46.0,43.0,29.99,ENE,66,0.0,1.0,89,0.00,,,0.00,,2013-05-30 13:52:00,
2013-05-30 07:01:00,48.0,45.0,29.99,ENE,71,1.0,4.0,89,0.00,,,0.00,,2013-05-30 14:01:00,
2013-05-30 07:11:00,48.0,45.0,29.99,ENE,71,1.0,4.0,89,0.00,,,0.00,,2013-05-30 14:11:00,
2013-05-30 07:21:00,49.0,46.0,30.00,East,87,2.0,4.0,89,0.00,,,0.00,,2013-05-30 14:21:00,
2013-05-30 07:32:00,49.0,46.0,30.00,ENE,74,2.0,5.0,88,0.00,,,0.00,,2013-05-30 14:32:00,
2013-05-30 07:42:00,49.0,46.0,30.00,ENE,74,2.0,5.0,88,0.00,,,0.00,,2013-05-30 14:42:00,
2013-05-30 07:52:00,49.0,46.0,30.00,ENE,74,2.0,5.0,88,0.00,,,0.00,,2013-05-30 14:52:00,
2013-05-30 08:01:00,52.0,47.0,30.01,East,93,2.0,5.0,83,0.00,,,0.00,,2013-05-30 15:01:00,
2013-05-30 08:11:00,52.0,47.0,30.01,East,93,2.0,5.0,83,0.00,,,0.00,,2013-05-30 15:11:00,
2013-05-30 08:22:00,53.0,47.0,30.01,ENE,67,1.0,5.0,81,0.00,,,0.00,,2013-05-30 15:22:00,
2013-05-30 08:33:00,53.0,47.0,30.01,ENE,67,1.0,5.0,81,0.00,,,0.00,,2013-05-30 15:33:00,
2013-05-30 08:42:00,53.0,47.0,30.01,ENE,67,1.0,5.0,81,0.00,,,0.00,,2013-05-30 15:42:00,
2013-05-30 08:52:00,56.0,48.0,30.02,East,87,2.0,7.0,75,0.00,,,0.00,,2013-05-30 15:52:00,
2013-05-30 09:03:00,56.0,48.0,30.02,East,87,2.0,7.0,75,0.00,,,0.00,,2013-05-30 16:03:00,
2013-05-30 09:12:00,56.0,48.0,30.02,East,87,2.0,7.0,75,0.00,,,0.00,,2013-05-30 16:12:00,
2013-05-30 09:22:00,56.0,48.0,30.02,East,87,2.0,7.0,75,0.00,,,0.00,,2013-05-30 16:22:00,
2013-05-30 09:33:00,56.0,48.0,30.02,East,87,2.0,7.0,75,0.00,,,0.00,,2013-05-30 16:33:00,
2013-05-30 12:01:00,66.0,49.0,30.02,East,80,3.0,9.0,54,0.00,,,0.00,,2013-05-30 19:01:00,
2013-05-30 12:11:00,66.0,49.0,30.02,East,80,3.0,9.0,54,0.00,,,0.00,,2013-05-30 19:11:00,
2013-05-30 12:22:00,66.0,49.0,30.03,ENE,74,4.0,9.0,54,0.00,,,0.00,,2013-05-30 19:22:00,
2013-05-30 12:32:00,66.0,49.0,30.03,ENE,74,4.0,9.0,54,0.00,,,0.00,,2013-05-30 19:32:00,
2013-05-30 12:42:00,66.0,49.0,30.03,ENE,74,4.0,9.0,54,0.00,,,0.00,,2013-05-30 19:42:00,
2013-05-30 12:52:00,66.0,49.0,30.03,ENE,74,4.0,9.0,54,0.00,,,0.00,,2013-05-30 19:52:00,
2013-05-30 13:01:00,69.0,50.0,30.02,ENE,63,1.0,6.0,51,0.00,,,0.00,,2013-05-30 20:01:00,
2013-05-30 13:11:00,69.0,50.0,30.02,ENE,63,1.0,6.0,51,0.00,,,0.00,,2013-05-30 20:11:00,
2013-05-30 13:22:00,70.0,50.0,30.02,NE,51,3.0,8.0,50,0.00,,,0.00,,2013-05-30 20:22:00,
2013-05-30 13:33:00,70.0,49.0,30.02,ESE,119,3.0,11.0,48,0.00,,,0.00,,2013-05-30 20:33:00,
2013-05-30 13:41:00,70.0,49.0,30.02,ESE,119,3.0,11.0,48,0.00,,,0.00,,2013-05-30 20:41:00,
2013-05-30 13:52:00,70.0,48.0,30.02,East,96,1.0,9.0,46,0.00,,,0.00,,2013-05-30 20:52:00,
2013-05-30 14:01:00,69.0,48.0,30.02,SE,131,2.0,10.0,48,0.00,,,0.00,,2013-05-30 21:01:00,
2013-05-30 14:11:00,69.0,48.0,30.02,SE,131,2.0,10.0,48,0.00,,,0.00,,2013-05-30 21:11:00,
2013-05-30 14:22:00,69.0,48.0,30.02,ENE,69,3.0,6.0,48,0.00,,,0.00,,2013-05-30 21:22:00,
2013-05-30 14:33:00,68.0,48.0,30.02,East,91,0.0,10.0,49,0.00,,,0.00,,2013-05-30 21:33:00,
2013-05-30 14:42:00,68.0,48.0,30.02,East,91,0.0,10.0,49,0.00,,,0.00,,2013-05-30 21:42:00,
2013-05-30 14:53:00,68.0,48.0,30.01,SE,129,2.0,10.0,48,0.00,,,0.00,,2013-05-30 21:53:00,
2013-05-30 15:02:00,68.0,48.0,30.01,NE,37,2.0,7.0,49,0.00,,,0.00,,2013-05-30 22:02:00,
2013-05-30 15:12:00,68.0,48.0,30.01,NE,37,2.0,7.0,49,0.00,,,0.00,,2013-05-30 22:12:00,
2013-05-30 15:22:00,69.0,48.0,30.01,NE,53,1.0,6.0,48,0.00,,,0.00,,2013-05-30 22:22:00,
2013-05-30 15:32:00,68.0,49.0,30.01,WSW,256,3.0,11.0,50,0.00,,,0.00,,2013-05-30 22:32:00,
2013-05-30 15:42:00,68.0,49.0,30.01,ENE,78,3.0,7.0,50,0.00,,,0.00,,2013-05-30 22:42:00,
2013-05-30 15:52:00,68.0,49.0,30.01,ENE,78,3.0,7.0,50,0.00,,,0.00,,2013-05-30 22:52:00,
2013-05-30 16:02:00,68.0,49.0,30.02,East,88,2.0,5.0,50,0.00,,,0.00,,2013-05-30 23:02:00,
2013-05-30 16:11:00,68.0,49.0,30.02,East,88,2.0,5.0,50,0.00,,,0.00,,2013-05-30 23:11:00,
2013-05-30 16:21:00,67.0,49.0,30.02,NE,34,3.0,10.0,52,0.00,,,0.00,,2013-05-30 23:21:00,
2013-05-30 16:31:00,67.0,49.0,30.01,North,5,2.0,10.0,52,0.00,,,0.00,,2013-05-30 23:31:00,
2013-05-30 16:41:00,67.0,49.0,30.01,North,5,2.0,10.0,52,0.00,,,0.00,,2013-05-30 23:41:00,
2013-05-30 16:52:00,67.0,49.0,30.01,East,79,2.0,5.0,52,0.00,,,0.00,,2013-05-30 23:52:00,
2013-05-30 17:01:00,67.0,49.0,30.01,East,96,0.0,4.0,52,0.00,,,0.00,,2013-05-31 00:01:00,
2013-05-30 17:11:00,67.0,49.0,30.01,East,96,0.0,4.0,52,0.00,,,0.00,,2013-05-31 00:11:00,
2013-05-30 17:21:00,66.0,48.0,30.01,NE,38,1.0,6.0,53,0.00,,,0.00,,2013-05-31 00:21:00,
2013-05-30 17:32:00,66.0,48.0,30.01,SE,138,2.0,7.0,52,0.00,,,0.00,,2013-05-31 00:32:00,
2013-05-30 17:41:00,64.0,47.0,30.01,NNW,342,1.0,6.0,55,0.00,,,0.00,,2013-05-31 00:41:00,
2013-05-30 17:52:00,64.0,47.0,30.01,NNW,342,1.0,6.0,55,0.00,,,0.00,,2013-05-31 00:52:00,
2013-05-30 18:01:00,64.0,47.0,30.01,NNW,342,1.0,6.0,55,0.00,,,0.00,,2013-05-31 01:01:00,
2013-05-30 18:12:00,64.0,47.0,30.01,NNW,342,1.0,6.0,55,0.00,,,0.00,,2013-05-31 01:12:00,
2013-05-30 18:21:00,64.0,47.0,30.01,NNW,342,1.0,6.0,55,0.00,,,0.00,,2013-05-31 01:21:00,
2013-05-30 19:02:00,60.0,47.0,30.01,ESE,119,0.0,6.0,61,0.00,,,0.00,,2013-05-31 02:02:00,
2013-05-30 19:11:00,60.0,47.0,30.01,ESE,119,0.0,6.0,61,0.00,,,0.00,,2013-05-31 02:11:00,
2013-05-30 19:21:00,59.0,46.0,30.01,SE,128,0.0,5.0,62,0.00,,,0.00,,2013-05-31 02:21:00,
2013-05-30 19:32:00,58.0,45.0,30.01,NE,51,0.0,4.0,63,0.00,,,0.00,,2013-05-31 02:32:00,
2013-05-30 19:41:00,58.0,45.0,30.01,NE,51,0.0,4.0,63,0.00,,,0.00,,2013-05-31 02:41:00,
2013-05-30 19:51:00,57.0,45.0,30.01,East,82,1.0,4.0,65,0.00,,,0.00,,2013-05-31 02:51:00,
2013-05-30 20:01:00,57.0,46.0,30.01,ENE,78,0.0,4.0,67,0.00,,,0.00,,2013-05-31 03:01:00,
2013-05-30 20:11:00,57.0,46.0,30.01,ENE,78,0.0,4.0,67,0.00,,,0.00,,2013-05-31 03:11:00,
2013-05-30 20:21:00,56.0,46.0,30.01,ENE,78,0.0,3.0,68,0.00,,,0.00,,2013-05-31 03:21:00,
2013-05-30 20:33:00,56.0,46.0,30.01,ENE,70,2.0,4.0,69,0.00,,,0.00,,2013-05-31 03:33:00,
2013-05-30 20:43:00,56.0,46.0,30.01,ENE,70,2.0,4.0,69,0.00,,,0.00,,2013-05-31 03:43:00,
2013-05-30 20:53:00,55.0,45.0,30.01,East,81,1.0,2.0,70,0.00,,,0.00,,2013-05-31 03:53:00,
2013-05-30 21:02:00,54.0,45.0,30.01,East,91,0.0,4.0,72,0.00,,,0.00,,2013-05-31 04:02:00,
2013-05-30 21:12:00,54.0,45.0,30.01,East,91,0.0,4.0,72,0.00,,,0.00,,2013-05-31 04:12:00,
2013-05-30 21:22:00,54.0,45.0,30.01,NE,47,0.0,5.0,72,0.00,,,0.00,,2013-05-31 04:22:00,
2013-05-30 21:32:00,53.0,45.0,30.01,ENE,63,0.0,2.0,73,0.00,,,0.00,,2013-05-31 04:32:00,
2013-05-30 21:42:00,53.0,45.0,30.01,ENE,63,0.0,2.0,73,0.00,,,0.00,,2013-05-31 04:42:00,
2013-05-30 21:53:00,53.0,45.0,30.02,ENE,65,0.0,2.0,75,0.00,,,0.00,,2013-05-31 04:53:00,
2013-05-30 22:02:00,52.0,45.0,30.02,ENE,65,0.0,0.0,76,0.00,,,0.00,,2013-05-31 05:02:00,
2013-05-30 22:12:00,52.0,45.0,30.02,ENE,65,0.0,0.0,76,0.00,,,0.00,,2013-05-31 05:12:00,
2013-05-30 22:22:00,52.0,45.0,30.02,ENE,65,0.0,0.0,77,0.00,,,0.00,,2013-05-31 05:22:00,
2013-05-30 22:31:00,51.0,45.0,30.03,ENE,65,0.0,2.0,79,0.00,,,0.00,,2013-05-31 05:31:00,
2013-05-30 22:41:00,51.0,45.0,30.03,ENE,65,0.0,2.0,79,0.00,,,0.00,,2013-05-31 05:41:00,
2013-05-30 22:52:00,51.0,45.0,30.03,ENE,65,0.0,2.0,80,0.00,,,0.00,,2013-05-31 05:52:00,
2013-05-30 23:01:00,50.0,44.0,30.03,ENE,65,0.0,0.0,81,0.00,,,0.00,,2013-05-31 06:01:00,
2013-05-30 23:11:00,50.0,44.0,30.03,ENE,65,0.0,0.0,81,0.00,,,0.00,,2013-05-31 06:11:00,
2013-05-30 23:21:00,50.0,44.0,30.03,ENE,65,0.0,1.0,81,0.00,,,0.00,,2013-05-31 06:21:00,
2013-05-30 23:31:00,49.0,44.0,30.02,ENE,71,0.0,1.0,82,0.00,,,0.00,,2013-05-31 06:31:00,
2013-05-30 23:41:00,49.0,44.0,30.02,ENE,71,0.0,1.0,82,0.00,,,0.00,,2013-05-31 06:41:00,
2013-05-30 23:52:00,49.0,44.0,30.02,ENE,71,0.0,2.0,83,0.00,,,0.00,,2013-05-31 06:52:00,